STARLINK-1224 (45186 NORAD) Tracking and Keplerian Element Data

This shows tracking and keplerian element data for the satellite.

Feedback or suggestion? Click here.




ElementValue
Catalog45186
NameSTARLINK-1224
Epoch Orbit677
Epoch Day88.25001157
Epoch Year2020
RAAN79.2191
Inclination53.0045
Eccentricity0.0001287
Argument of Perigee75.7745
Mean Anonmoly291.9527
Mean Motion15.13650466
Decay Rate-0.0014711
L11 45186U 20012J 20088.25001157 -.00147110 00000-0 -82375-2 0 9991
L22 45186 53.0045 79.2191 0001287 75.7745 291.9527 15.13650466 6777

Live tracking and technical data element details for STARLINK-1224 (NORAD 45186). STARLINK-1224 can be tracked NOW for your location showing map with azimuth and elevation plus other details from your city location.

Track the satellite on the map from your city or location and see movement details for azimuth, elevation, latitude, longitude, range, height, and movement on the map or in text.







IsCatalogInMostPopularTable: catalog: 45186, numindb: 9
Update: records affected: 1



GetName: 45186 STARLINK-1224

Hit Count: updated at: Tue, 31 Mar 2020 13:40:13 GMT